STARLINK-4547 (53573 NORAD) Tracking and Keplerian Element Data

This shows tracking and keplerian element data for the satellite.

Feedback or suggestion? Click here.




ElementValue
Catalog53573
NameSTARLINK-4547
Epoch Orbit130
Epoch Day324.91667824
Epoch Year2022
RAAN62.3811
Inclination53.216
Eccentricity0.0001662
Argument of Perigee46.899
Mean Anonmoly102.6863
Mean Motion15.08870972
Decay Rate-0.00055415
L11 53573U 22101AY 22324.91667824 -.00055415 00000+0 -34877-2 0 9997
L22 53573 53.2160 62.3811 0001662 46.8990 102.6863 15.08870972 1301



Live tracking and technical data element details for STARLINK-4547 (NORAD 53573). STARLINK-4547 can be tracked NOW for your location showing map with azimuth and elevation plus other details from your city location.







IsCatalogInMostPopularTable: catalog: 53573, numindb: 4
Update: records affected: 1



GetName: 53573 STARLINK-4547

Hit Count: updated at: Thu, 08 Dec 2022 19:36:20 GMT